DW8622 Weather Reports


Display with metric or nautical units.
time (UTC)temp
F
wind
direction
speed
MPH
gust
MPH
rain 1hr
in
rain 24hr
in
rain mn
in
humidity
%
barometer
mb
20260906083506 66 128 4.0 10.0 0.00 0.00 0.00 73 1025.8
20260906083007 65 137 3.0 10.0 0.00 0.00 0.00 75 1025.8
20260906082506 65 141 4.0 11.0 0.00 0.00 0.00 74 1025.9
20260906082006 65 139 3.0 11.0 0.00 0.00 0.00 74 1025.8
20260906081506 65 129 2.0 10.0 0.00 0.00 0.00 76 1025.8
20260906081006 64 130 3.0 10.0 0.00 0.00 0.00 77 1025.8
20260906080505 64 128 2.0 10.0 0.00 0.00 0.00 78 1025.7
20260906075506 63 132 4.0 11.0 0.00 0.00 0.00 79 1025.7
20260906075006 63 136 3.0 9.0 0.00 0.00 0.00 81 1025.8
20260906074506 62 140 3.0 9.0 0.00 0.00 0.00 81 1025.9
20260906074006 61 143 2.0 6.0 0.00 0.00 0.00 83 1025.9
20260906073506 60 141 2.0 6.0 0.00 0.00 0.00 85 1026.0
20260906073006 60 137 2.0 6.0 0.00 0.00 0.00 87 1025.9
20260906072506 59 143 2.0 6.0 0.00 0.00 0.00 88 1025.9
20260906072006 59 153 2.0 5.0 0.00 0.00 0.00 90 1026.0
20260906071506 58 153 1.0 5.0 0.00 0.00 0.00 91 1026.0
20260906071006 58 142 1.0 5.0 0.00 0.00 0.00 92 1025.9
20260906070506 58 138 1.0 4.0 0.00 0.00 0.00 92 1025.9
20260906065506 56 0 0.0 0.0 0.00 0.00 0.00 94 1026.0
20260906064506 56 0 0.0 0.0 0.00 0.00 0.00 93 1025.9
20260906064006 56 0 0.0 0.0 0.00 0.00 0.00 93 1026.0
20260906063507 56 0 0.0 0.0 0.00 0.00 0.00 93 1026.1
20260906063006 56 0 0.0 0.0 0.00 0.00 0.00 93 1026.0
20260906062506 56 0 0.0 0.0 0.00 0.00 0.00 94 1025.9
20260906061506 55 0 0.0 0.0 0.00 0.00 0.00 95 1025.8
20260906060506 54 154 0.0 3.0 0.00 0.00 0.00 96 1025.7
20260906060006 53 0 0.0 0.0 0.00 0.00 0.00 95 1025.7
20260906055506 53 0 0.0 0.0 0.00 0.00 0.00 95 1025.8
20260906055006 52 0 0.0 0.0 0.00 0.00 0.00 95 1025.7
20260906054506 52 0 0.0 0.0 0.00 0.00 0.00 95 1025.6
20260906054006 52 0 0.0 0.0 0.00 0.00 0.00 94 1025.6
20260906053506 53 0 0.0 0.0 0.00 0.00 0.00 95 1025.6
20260906052006 52 0 0.0 0.0 0.00 0.00 0.00 95 1025.7
20260906051506 51 0 0.0 0.0 0.00 0.00 0.00 94 1025.7
20260906051007 51 0 0.0 0.0 0.00 0.00 0.00 94 1025.7
20260906050506 51 0 0.0 0.0 0.00 0.00 0.00 94 1025.7
20260906050006 51 0 0.0 0.0 0.00 0.00 0.00 94 1025.6
20260906045506 51 0 0.0 0.0 0.00 0.00 0.00 94 1025.4
20260906045006 52 0 0.0 0.0 0.00 0.00 0.00 94 1025.3
20260906044506 53 0 0.0 0.0 0.00 0.00 0.00 94 1025.3
20260906044006 53 0 0.0 0.0 0.00 0.00 0.00 94 1025.5
20260906043506 53 0 0.0 0.0 0.00 0.00 0.00 94 1025.5
20260906042506 53 0 0.0 0.0 0.00 0.00 0.00 94 1025.7
20260906041507 53 0 0.0 0.0 0.00 0.00 0.00 95 1025.7
20260906040506 53 0 0.0 0.0 0.00 0.00 0.00 95 1025.7
20260906040006 53 0 0.0 0.0 0.00 0.00 0.00 95 1025.9
20260906035505 53 0 0.0 0.0 0.00 0.00 0.00 95 1025.9
20260906035006 53 0 0.0 0.0 0.00 0.00 0.00 95 1025.9
20260906034506 52 0 0.0 0.0 0.00 0.00 0.00 95 1026.0
20260906034006 53 0 0.0 0.0 0.00 0.00 0.00 95 1026.0
20260906033506 52 0 0.0 0.0 0.00 0.00 0.00 95 1025.9
20260906033007 52 0 0.0 0.0 0.00 0.00 0.00 95 1026.0
20260906032506 52 0 0.0 0.0 0.00 0.00 0.00 94 1026.2
20260906032006 52 0 0.0 0.0 0.00 0.00 0.00 94 1026.1
20260906031006 52 0 0.0 0.0 0.00 0.00 0.00 94 1026.0
20260906030006 52 0 0.0 0.0 0.00 0.00 0.00 94 1025.8
20260906025506 53 0 0.0 0.0 0.00 0.00 0.00 94 1026.1
20260906025006 53 0 0.0 0.0 0.00 0.00 0.00 94 1026.1
20260906024506 53 0 0.0 0.0 0.00 0.00 0.00 94 1026.2
20260906024006 53 0 0.0 0.0 0.00 0.00 0.00 94 1026.2
20260906023506 53 0 0.0 0.0 0.00 0.00 0.00 94 1026.3
20260906023006 53 0 0.0 0.0 0.00 0.00 0.00 93 1026.4
20260906022506 53 0 0.0 0.0 0.00 0.00 0.00 93 1026.5
20260906021506 54 0 0.0 0.0 0.00 0.00 0.00 94 1026.5
20260906021007 54 0 0.0 0.0 0.00 0.00 0.00 94 1026.6
20260906020506 54 0 0.0 0.0 0.00 0.00 0.00 94 1026.6
20260906020006 54 0 0.0 0.0 0.00 0.00 0.00 94 1026.6
20260906015506 54 0 0.0 0.0 0.00 0.00 0.00 94 1026.7
20260906015006 54 0 0.0 0.0 0.00 0.00 0.00 94 1026.5
20260906014506 54 0 0.0 0.0 0.00 0.00 0.00 94 1026.4
20260906013506 54 0 0.0 0.0 0.00 0.00 0.00 94 1026.3
20260906013006 54 0 0.0 0.0 0.00 0.00 0.00 94 1026.2
20260906012506 54 0 0.0 0.0 0.00 0.00 0.00 94 1026.2
20260906012006 54 0 0.0 0.0 0.00 0.00 0.00 94 1026.3
20260906011507 53 0 0.0 0.0 0.00 0.00 0.00 94 1026.3
20260906011006 54 0 0.0 0.0 0.00 0.00 0.00 93 1026.1
20260906010507 54 0 0.0 0.0 0.00 0.00 0.00 94 1026.2
20260906010006 54 0 0.0 0.0 0.00 0.00 0.00 94 1026.3
20260906005006 55 0 0.0 0.0 0.00 0.00 0.00 94 1026.5
20260906004506 55 0 0.0 0.0 0.00 0.00 0.00 94 1026.4
20260906004006 55 0 0.0 0.0 0.00 0.00 0.00 94 1026.4
20260906002505 54 0 0.0 0.0 0.00 0.00 0.00 94 1026.3
20260906002005 54 0 0.0 0.0 0.00 0.00 0.00 94 1026.5
20260906001506 54 0 0.0 0.0 0.00 0.00 0.00 93 1026.3
20260906001006 53 0 0.0 0.0 0.00 0.00 0.00 94 1026.2
20260906000004 53 0 0.0 0.0 0.00 0.00 0.00 93 1026.2
20260905235505 53 0 0.0 0.0 0.00 0.00 0.00 93 1026.2
20260905235005 53 0 0.0 0.0 0.00 0.00 0.00 93 1026.1
20260905234505 53 0 0.0 0.0 0.00 0.00 0.00 93 1026.1
20260905233004 54 0 0.0 0.0 0.00 0.00 0.00 92 1026.1
20260905232505 54 0 0.0 0.0 0.00 0.00 0.00 92 1026.1
20260905232004 53 0 0.0 0.0 0.00 0.00 0.00 92 1026.2
20260905231005 54 0 0.0 0.0 0.00 0.00 0.00 92 1026.2
20260905230505 54 0 0.0 0.0 0.00 0.00 0.00 91 1026.3
20260905225505 55 0 0.0 0.0 0.00 0.00 0.00 91 1026.2
20260905225004 55 0 0.0 0.0 0.00 0.00 0.00 91 1026.2
20260905224505 55 0 0.0 0.0 0.00 0.00 0.00 91 1026.1
20260905224005 55 0 0.0 0.0 0.00 0.00 0.00 91 1026.2
20260905223505 56 0 0.0 0.0 0.00 0.00 0.00 91 1026.2
20260905223005 55 0 0.0 0.0 0.00 0.00 0.00 92 1026.2
20260905222005 55 0 0.0 0.0 0.00 0.00 0.00 93 1026.0
20260905221505 55 0 0.0 0.0 0.00 0.00 0.00 92 1026.0
20260905221004 55 0 0.0 0.0 0.00 0.00 0.00 92 1025.9
20260905220505 55 0 0.0 0.0 0.00 0.00 0.00 92 1025.9
20260905220005 55 0 0.0 0.0 0.00 0.00 0.00 92 1025.9
20260905215505 55 0 0.0 0.0 0.00 0.00 0.00 92 1025.9
20260905215005 55 0 0.0 0.0 0.00 0.00 0.00 92 1025.9
20260905214504 55 0 0.0 0.0 0.00 0.00 0.00 92 1025.9
20260905214005 55 0 0.0 0.0 0.00 0.00 0.00 92 1025.8
20260905213505 55 0 0.0 0.0 0.00 0.00 0.00 92 1025.7
20260905213005 55 0 0.0 0.0 0.00 0.00 0.00 92 1025.8
20260905212505 55 0 0.0 0.0 0.00 0.00 0.00 91 1025.8
20260905212005 55 0 0.0 0.0 0.00 0.00 0.00 91 1025.7
20260905211505 56 0 0.0 0.0 0.00 0.00 0.00 91 1025.7
20260905211005 56 0 0.0 0.0 0.00 0.00 0.00 90 1025.7
20260905210505 56 0 0.0 0.0 0.00 0.00 0.00 90 1025.7
20260905210005 56 0 0.0 0.0 0.00 0.00 0.00 90 1025.7
20260905205505 56 0 0.0 0.0 0.00 0.00 0.00 90 1025.6
20260905205005 56 0 0.0 0.0 0.00 0.00 0.00 89 1025.6
20260905204505 56 0 0.0 0.0 0.00 0.00 0.00 89 1025.6
20260905204005 56 0 0.0 0.0 0.00 0.00 0.00 89 1025.5
20260905203505 57 0 0.0 0.0 0.00 0.00 0.00 88 1025.7
20260905203005 57 0 0.0 0.0 0.00 0.00 0.00 88 1025.7
20260905202505 57 0 0.0 0.0 0.00 0.00 0.00 86 1025.7
20260905202004 58 0 0.0 0.0 0.00 0.00 0.00 87 1025.6
20260905201505 58 0 0.0 0.0 0.00 0.00 0.00 87 1025.5
20260905201005 58 0 0.0 0.0 0.00 0.00 0.00 88 1025.6
20260905200505 58 0 0.0 0.0 0.00 0.00 0.00 87 1025.5
20260905200005 58 0 0.0 0.0 0.00 0.00 0.00 87 1025.5
20260905195504 58 0 0.0 0.0 0.00 0.00 0.00 86 1025.5
20260905195006 58 0 0.0 0.0 0.00 0.00 0.00 86 1025.4
20260905194005 58 0 0.0 0.0 0.00 0.00 0.00 85 1025.3
20260905193505 59 0 0.0 0.0 0.00 0.00 0.00 84 1025.3
20260905193004 59 0 0.0 0.0 0.00 0.00 0.00 83 1025.2
20260905192505 60 0 0.0 0.0 0.00 0.00 0.00 83 1025.2
20260905191505 60 0 0.0 0.0 0.00 0.00 0.00 82 1025.2
20260905191005 60 0 0.0 0.0 0.00 0.00 0.00 81 1025.1
20260905190504 60 0 0.0 0.0 0.00 0.00 0.00 81 1025.2
20260905190005 61 0 0.0 0.0 0.00 0.00 0.00 80 1025.2
20260905185504 61 0 0.0 0.0 0.00 0.00 0.00 80 1025.1
20260905185005 61 0 0.0 0.0 0.00 0.00 0.00 79 1025.1
20260905184504 62 0 0.0 0.0 0.00 0.00 0.00 78 1025.1
20260905183505 62 0 0.0 0.0 0.00 0.00 0.00 78 1025.0
20260905183004 62 0 0.0 0.0 0.00 0.00 0.00 78 1024.9
20260905182505 62 0 0.0 0.0 0.00 0.00 0.00 77 1024.8
20260905182004 63 0 0.0 0.0 0.00 0.00 0.00 77 1024.8
20260905181505 63 0 0.0 0.0 0.00 0.00 0.00 76 1024.9
20260905181005 63 0 0.0 0.0 0.00 0.00 0.00 75 1024.9
20260905180005 64 0 0.0 0.0 0.00 0.00 0.00 73 1024.8
20260905175505 65 297 1.0 5.0 0.00 0.00 0.00 72 1024.8
20260905175005 65 295 1.0 5.0 0.00 0.00 0.00 72 1024.7
20260905174005 65 292 3.0 10.0 0.00 0.00 0.00 70 1024.8
20260905173006 65 284 5.0 11.0 0.00 0.00 0.00 69 1024.8
20260905172505 65 279 4.0 10.0 0.00 0.00 0.00 70 1024.8
20260905171505 65 277 4.0 9.0 0.00 0.00 0.00 69 1024.7
20260905170505 66 275 5.0 12.0 0.00 0.00 0.00 67 1024.6
20260905165505 66 279 4.0 9.0 0.00 0.00 0.00 67 1024.5
20260905165004 66 270 4.0 10.0 0.00 0.00 0.00 67 1024.5
20260905164505 67 266 6.0 14.0 0.00 0.00 0.00 64 1024.5
20260905164005 68 269 7.0 15.0 0.00 0.00 0.00 62 1024.4
20260905163504 68 268 7.0 15.0 0.00 0.00 0.00 62 1024.4
20260905162004 68 268 6.0 14.0 0.00 0.00 0.00 61 1024.2
20260905161505 68 269 6.0 14.0 0.00 0.00 0.00 62 1024.2
20260905161004 68 268 7.0 14.0 0.00 0.00 0.00 62 1024.1
20260905160505 68 270 7.0 15.0 0.00 0.00 0.00 62 1024.1
20260905160005 68 274 6.0 15.0 0.00 0.00 0.00 62 1024.0
20260905155504 68 272 7.0 15.0 0.00 0.00 0.00 62 1024.0
20260905155005 69 268 8.0 17.0 0.00 0.00 0.00 61 1023.9
20260905154005 69 268 7.0 17.0 0.00 0.00 0.00 59 1023.7
20260905153506 70 269 7.0 17.0 0.00 0.00 0.00 60 1023.7
20260905153004 70 268 7.0 16.0 0.00 0.00 0.00 59 1023.7
20260905152505 70 272 7.0 16.0 0.00 0.00 0.00 58 1023.7
20260905152004 70 277 8.0 15.0 0.00 0.00 0.00 57 1023.6
20260905151505 70 274 7.0 15.0 0.00 0.00 0.00 59 1023.6
20260905150505 67 272 7.0 14.0 0.00 0.00 0.00 63 1023.7
20260905145505 69 274 7.0 13.0 0.00 0.00 0.00 60 1023.6
20260905145004 70 270 9.0 18.0 0.00 0.00 0.00 56 1023.6
20260905144505 71 273 9.0 19.0 0.00 0.00 0.00 56 1023.5
20260905144005 70 272 10.0 19.0 0.00 0.00 0.00 56 1023.5
20260905143505 70 270 9.0 18.0 0.00 0.00 0.00 55 1023.4
20260905142505 70 272 7.0 16.0 0.00 0.00 0.00 57 1023.3
20260905142004 71 274 8.0 16.0 0.00 0.00 0.00 57 1023.2
20260905141505 71 274 8.0 16.0 0.00 0.00 0.00 55 1023.2
20260905141005 71 273 8.0 17.0 0.00 0.00 0.00 56 1023.1
20260905140504 70 270 9.0 17.0 0.00 0.00 0.00 57 1023.1
20260905140005 69 273 10.0 18.0 0.00 0.00 0.00 60 1023.0
20260905135505 69 272 10.0 18.0 0.00 0.00 0.00 56 1023.0
20260905135005 69 270 9.0 18.0 0.00 0.00 0.00 61 1022.9
20260905134504 70 270 9.0 18.0 0.00 0.00 0.00 62 1022.9
20260905134005 70 272 9.0 18.0 0.00 0.00 0.00 60 1022.8
20260905133505 69 270 8.0 16.0 0.00 0.00 0.00 63 1022.8
20260905132004 70 270 8.0 17.0 0.00 0.00 0.00 58 1022.7
20260905131505 71 270 9.0 17.0 0.00 0.00 0.00 54 1022.6
20260905130504 70 275 10.0 23.0 0.00 0.00 0.00 57 1022.5
20260905130005 69 276 10.0 23.0 0.00 0.00 0.00 59 1022.5
20260905125504 69 277 10.0 20.0 0.00 0.00 0.00 59 1022.5
20260905125005 69 278 10.0 22.0 0.00 0.00 0.00 60 1022.5
20260905124504 70 278 10.0 22.0 0.00 0.00 0.00 57 1022.5
20260905124005 70 274 9.0 20.0 0.00 0.00 0.00 60 1022.5
20260905123505 70 269 10.0 19.0 0.00 0.00 0.00 60 1022.4
20260905123005 70 270 10.0 19.0 0.00 0.00 0.00 58 1022.3
20260905122505 70 277 9.0 16.0 0.00 0.01 0.00 59 1022.2
20260905122005 68 283 9.0 21.0 0.00 0.01 0.00 62 1022.2
20260905120506 70 279 9.0 21.0 0.00 0.01 0.00 59 1022.1
20260905115505 73 280 9.0 20.0 0.00 0.01 0.00 59 1022.1
20260905115004 72 279 8.0 19.0 0.00 0.01 0.00 60 1022.0
20260905114505 71 273 9.0 19.0 0.00 0.02 0.00 62 1022.0
20260905113505 71 267 9.0 21.0 0.00 0.03 0.00 60 1021.8
20260905113004 71 270 7.0 15.0 0.00 0.04 0.00 60 1021.8
20260905112004 69 270 8.0 15.0 0.00 0.06 0.00 63 1021.6
20260905111005 70 270 9.0 21.0 0.00 0.16 0.00 60 1021.5
20260905110505 71 266 10.0 21.0 0.00 0.18 0.00 61 1021.5
20260905110005 69 270 9.0 19.0 0.00 0.18 0.00 63 1021.4
20260905105505 69 276 9.0 18.0 0.00 0.19 0.00 61 1021.5
20260905104506 70 272 9.0 21.0 0.00 0.19 0.00 64 1021.3
20260905104005 68 271 10.0 20.0 0.00 0.19 0.00 62 1021.2
20260905103504 69 279 10.0 19.0 0.00 0.19 0.00 61 1021.2
20260905103004 70 284 9.0 18.0 0.00 0.19 0.00 62 1021.1
20260905102504 70 283 9.0 16.0 0.00 0.19 0.00 62 1021.1
20260905102005 70 279 10.0 21.0 0.00 0.19 0.00 64 1021.0
20260905101505 69 276 11.0 21.0 0.00 0.19 0.00 63 1020.9
20260905101005 69 270 10.0 21.0 0.00 0.19 0.00 64 1020.9
20260905100006 69 276 10.0 20.0 0.00 0.19 0.00 62 1020.8
20260905095506 69 276 8.0 19.0 0.00 0.19 0.00 64 1020.8
20260905095006 69 277 8.0 18.0 0.00 0.19 0.00 67 1020.7
20260905094505 69 276 8.0 18.0 0.00 0.19 0.00 64 1020.7
20260905094005 70 275 9.0 19.0 0.00 0.19 0.00 64 1020.6
20260905092005 68 274 10.0 17.0 0.00 0.19 0.00 67 1020.3
20260905091505 67 275 8.0 16.0 0.00 0.19 0.00 71 1020.2
20260905090005 68 274 9.0 20.0 0.00 0.19 0.00 68 1020.1
20260905085505 67 278 9.0 19.0 0.00 0.19 0.00 71 1020.0
20260905085004 67 278 7.0 19.0 0.00 0.19 0.00 72 1020.0
20260905084005 67 270 7.0 14.0 0.00 0.19 0.00 72 1019.9